Participated 1 time
in 1965
Roland Van De Rijse, Belgium
Tour de France 2026 starts from Barcelona, Spain in

Stats and Facts from
Tour de France.

2026   2025   2024   2023  2022  2021  2020  2019   2018  2017   2016   2015  2014  2013   2012   2011  2010   2009   2008   2007   2006   2005   2004   2003   2002   2001   2000   1999   1998   1997  1996   1995   1994   1993   1992  1991   1990   1989   1988   1987   1986   1985   1984   1983  1982  1981   1980   1979  1978  1977   1976  1975  1974  1973   1972   1971   1970  1969   1968   1967   1966   1965  1964  1963   1962   1961   1960   1959   1958   1957  1956   1955   1954   1953   1952  1951  1950  1949   1948  1947  1939   1938   1937   1936   1935   1934   1933  1932   1931   1930  1929   1928   1927   1926  1925  1924  1923   1922   1921   1920   1919  1914   1913   1912   1911   1910  1909   1908   1907   1906  1905  1904   1903 

Tourstats
Sitemap

After stage 21 - 2025:
 16451 starters.
  5464 different riders.
  689 teams.
  2398 stages.
  470 restdays.
  466506.50 km.
  5925 abandoned riders.

Click map for 1910 route.
Facts from Tour de France 1910 Additional info and images from 1910.
  |   Stages.  |   Stage winners.  |   Days in jerseys.  |   Teams.  |   All riders.  |   All riders by age.  |   All riders from.  |  

  |   Rookies.  |   Withdrawls.  |   Average speed.  |   GC.  |   Polka  |   Green  |   White  |   Summits. (In tour)  |   Miscellaneous.  |  

Stage 2 on July 5th. 1910
Pick a stage:  1  2  3  4  5  6  7  8  9  10  11  12  13  14  15  

After stage 2:    François Faber  
  RoubaixMetz | Dist: 398.00km. | Winner: François Faber

Podium

Average speed for all riders in stage:  23,231 km./hr.

1
 François Faber  Alcyon13h 08' 00"=30,305  km/h

2
 Gustave Garrigou  Alcyon13h 15' 00"+  00:07:00 =30,038  km/h

3
 Octave Lapize  Alcyon13h 25' 00"+  00:17:00 =29,665  km/h

4  Cyrille Van Hauwaert  Alcyon13h 25' 00"+  00:17:00 =29,665  km/h

5  Henri Cornet  Le Globe13h 33' 00"+  00:25:00 =29,373  km/h

6  Ernest Paul  Individual13h 37' 00"+  00:29:00 =29,229  km/h

7  Charles Cruchon  Individual13h 46' 00"+  00:38:00 =28,910  km/h

8  François  Lafourcade  Individual13h 50' 00"+  00:42:00 =28,771  km/h

9  Marcel Godivier  Alcyon13h 54' 00"+  00:46:00 =28,633  km/h

10  Constant Menager  Legnano13h 55' 00"+  00:47:00 =28,599  km/h

11  Louis Trousselier  Alcyon13h 58' 00"+  00:50:00 =28,496  km/h

12  André Blaise  Alcyon13h 58' 00"+  00:50:00 =28,496  km/h

13  Aldo Bettini  Alcyon13h 59' 00"+  00:51:00 =28,462  km/h

14  Pierino Albini  Legnano14h 06' 00"+  00:58:00 =28,227  km/h

15  Julien Maîtron  Le Globe14h 27' 00"+  01:19:00 =27,543  km/h

16  Lauro Bordin  Legnano14h 33' 00"+  01:25:00 =27,354  km/h

17  Frédéric Saillot  Le Globe14h 33' 00"+  01:25:00 =27,354  km/h

18  Robert Chopard  Individual14h 44' 00"+  01:36:00 =27,014  km/h

19  Maurice Pardon  Individual14h 44' 00"+  01:36:00 =27,014  km/h

20  Augustin Ringeval  Individual14h 45' 00"+  01:37:00 =26,983  km/h

21  Maurice Loit  Le Globe14h 46' 00"+  01:38:00 =26,953  km/h

22  Lucien Petit-Breton  Legnano14h 55' 00"+  01:47:00 =26,682  km/h

23  Giuseppe Azzini  Legnano15h 11' 00"+  02:03:00 =26,213  km/h

24  Lucien Leman  Individual15h 18' 00"+  02:10:00 =26,013  km/h

25  Ernesto Azzini  Legnano15h 19' 00"+  02:11:00 =25,985  km/h

26  Georges Fleury  Individual15h 28' 00"+  02:20:00 =25,733  km/h

27  Auguste Guyon  Individual15h 34' 00"+  02:26:00 =25,567  km/h

28  Joseph Habierre  Individual15h 34' 00"+  02:26:00 =25,567  km/h

29  Emile Georget  Legnano15h 40' 00"+  02:32:00 =25,404  km/h

30  Jean-Baptiste Dortignacq  Legnano15h 40' 00"+  02:32:00 =25,404  km/h

31  Charles Crupelandt  Le Globe15h 40' 00"+  02:32:00 =25,404  km/h

32  Georges Paulmier  Le Globe15h 40' 00"+  02:32:00 =25,404  km/h

33  Edouard Leonard  Alcyon15h 52' 00"+  02:44:00 =25,084  km/h

34  Gabriel Mathonat  Individual16h 01' 00"+  02:53:00 =24,849  km/h

35  Lucien Pothier  Individual16h 01' 00"+  02:53:00 =24,849  km/h

36  Joseph Leblanc  Individual16h 21' 00"+  03:13:00 =24,343  km/h

37  Charles Clodi  Individual16h 26' 00"+  03:18:00 =24,219  km/h

38  Pietro Ghislotti  Individual16h 27' 00"+  03:19:00 =24,195  km/h

39  Célestin Guillermoz  Individual16h 29' 00"+  03:21:00 =24,146  km/h

40  Jules Deloffre  Le Globe16h 33' 00"+  03:25:00 =24,048  km/h

41  Omer Beaugendre  Le Globe16h 36' 00"+  03:28:00 =23,976  km/h

42  Leon Lannoy  Le Globe16h 37' 00"+  03:29:00 =23,952  km/h

43  Paul Boillat  Individual16h 42' 00"+  03:34:00 =23,832  km/h

44  Jean Bouillet  Individual16h 51' 00"+  03:43:00 =23,620  km/h

45  Pierre Privat  Individual16h 51' 00"+  03:43:00 =23,620  km/h

46  Camille Bière  Individual16h 52' 00"+  03:44:00 =23,597  km/h

47  Charles Dumont  Individual17h 43' 00"+  04:35:00 =22,465  km/h

48  Albert Cognat  Individual17h 44' 00"+  04:36:00 =22,444  km/h

49  Raphael Galiero  Individual17h 54' 00"+  04:46:00 =22,235  km/h

50  Emile Abegg  Individual17h 54' 00"+  04:46:00 =22,235  km/h

51  Jean-Baptiste Camdessoucens  Individual18h 03' 00"+  04:55:00 =22,050  km/h

52  Georges Wagner  Individual18h 08' 00"+  05:00:00 =21,949  km/h

53  Noel Combelles  Individual18h 09' 00"+  05:01:00 =21,928  km/h

54  Maurice Decaup  Legnano18h 18' 00"+  05:10:00 =21,749  km/h

55  Maurice Brocco  Legnano18h 18' 00"+  05:10:00 =21,749  km/h

56  Rene Bartholet  Individual18h 39' 00"+  05:31:00 =21,340  km/h

57  Emile Lamboeuf  Individual18h 58' 00"+  05:50:00 =20,984  km/h

58  Amédée Dutiron  Individual19h 01' 00"+  05:53:00 =20,929  km/h

59  Adrien Heloin  Individual19h 01' 00"+  05:53:00 =20,929  km/h

60  Louis Faudon  Individual19h 04' 00"+  05:56:00 =20,874  km/h

61  Jean Perrucca  Individual19h 08' 00"+  06:00:00 =20,801  km/h

62  Auguste Dufour  Individual19h 08' 00"+  06:00:00 =20,801  km/h

63  François Riou  Individual19h 08' 00"+  06:00:00 =20,801  km/h

64  Constant Collet  Individual19h 08' 00"+  06:00:00 =20,801  km/h

65  Francois Picolot  Individual19h 08' 00"+  06:00:00 =20,801  km/h

66  Louis Picard  Individual19h 08' 00"+  06:00:00 =20,801  km/h

67  Emile Godard  Individual19h 08' 00"+  06:00:00 =20,801  km/h

68  Louis Jouin  Individual19h 08' 00"+  06:00:00 =20,801  km/h

69  Henri Alavoine  Individual19h 08' 00"+  06:00:00 =20,801  km/h

70  René Chaudé  Individual19h 08' 00"+  06:00:00 =20,801  km/h

71  Lucien Roquebert  Individual19h 08' 00"+  06:00:00 =20,801  km/h

72  Albert Baudet  Individual19h 08' 00"+  06:00:00 =20,801  km/h

73  Louis Pennequin  Individual19h 08' 00"+  06:00:00 =20,801  km/h

74  Frederic Vaillant  Individual19h 08' 00"+  06:00:00 =20,801  km/h

75  Hippolyte Charpentier  Individual19h 08' 00"+  06:00:00 =20,801  km/h

76  Joseph Wiringer  Individual19h 08' 00"+  06:00:00 =20,801  km/h

77  Alphonse Charpiot  Le Globe19h 08' 00"+  06:00:00 =20,801  km/h

78  Antony Wattelier  Individual19h 08' 00"+  06:00:00 =20,801  km/h

79  Georges Cauvry  Individual19h 08' 00"+  06:00:00 =20,801  km/h

80  Charles Pavese  Individual19h 08' 00"+  06:00:00 =20,801  km/h

81  Adolphe Hélière  Individual19h 08' 00"+  06:00:00 =20,801  km/h

82  Emile Lamy  Individual19h 08' 00"+  06:00:00 =20,801  km/h

83  Eugene Leroy  Individual19h 08' 00"+  06:00:00 =20,801  km/h

84  Victor Pasquier  Individual19h 08' 00"+  06:00:00 =20,801  km/h

85  Pierre Bordigoni  Individual19h 08' 00"+  06:00:00 =20,801  km/h

86  Paul Amiot  Individual19h 08' 00"+  06:00:00 =20,801  km/h

87  Henri Ory  Individual19h 08' 00"+  06:00:00 =20,801  km/h

88  Pierre Desvages  Individual19h 08' 00"+  06:00:00 =20,801  km/h

89  Alexandre Rambaudi  Individual19h 08' 00"+  06:00:00 =20,801  km/h

90  Adrien Melaye  Individual19h 08' 00"+  06:00:00 =20,801  km/h

91  Georges Devilly  Individual19h 08' 00"+  06:00:00 =20,801  km/h

92  Emile Besnier  Individual19h 08' 00"+  06:00:00 =20,801  km/h

93  Octave Doury  Individual19h 08' 00"+  06:00:00 =20,801  km/h

94  Edmond Heliot  Individual19h 08' 00"+  06:00:00 =20,801  km/h

95  Achille Violet  Individual19h 08' 00"+  06:00:00 =20,801  km/h

96  Pietro Fiore  Individual19h 08' 00"+  06:00:00 =20,801  km/h

97  Andre Herbelin  Individual19h 08' 00"+  06:00:00 =20,801  km/h

98  Eugene Moura  Individual19h 08' 00"+  06:00:00 =20,801  km/h


Withdrawls: 2
 RiderTeamReason
120   Paul Coppens IndividualDid not finish
172   Jules Defrance IndividualDid not finish
Todays birthdays.

1889 • Adolphe Landon
1890 • Jules Lebreton
1904 • Julien Grujon
1909 • Erich Metze
1926 • Giovanni Rossi
1928 • Serge Blusson
1928 • Alois Vansteenkiste
1931 • André Dupré
1934 • Alfred Rüegg
1962 • Francisco Espinosa
1962 • Paul Kimmage
1963 • Federico Muñoz
1966 • Andrea Tafi
1971 • Emmanuel Magnien
1973 • Paolo Savoldelli
1985 • Mikhail Ignatyev

 

Optimized for Chrome - Edge
and Opera browsers.